TimeCST,TemperatureF,Dew PointF,Humidity,Sea Level PressureIn,VisibilityMPH,Wind Direction,Wind SpeedMPH,Gust SpeedMPH,PrecipitationIn,Events,Conditions,WindDirDegrees,DateUTC
12:48 AM,32.0,32.0,100,29.82,10.0,SSW,4.6,-,N/A,,Overcast,200,2013-02-22 06:48:00
12:50 AM,32.0,32.0,100,29.82,10.0,SSW,4.6,-,N/A,,Overcast,200,2013-02-22 06:50:00
12:55 AM,32.5,32.5,100,29.82,7.0,SSW,4.6,-,0.00,Snow,Light Snow,200,2013-02-22 06:55:00
1:02 AM,32.0,32.0,100,29.82,4.0,SSW,4.6,-,N/A,Snow,Light Snow,200,2013-02-22 07:02:00
1:14 AM,32.0,32.0,100,29.83,6.0,SSW,4.6,-,N/A,Snow,Light Snow,200,2013-02-22 07:14:00
1:16 AM,32.0,32.0,100,29.83,6.0,SSW,4.6,-,N/A,Snow,Light Snow,200,2013-02-22 07:16:00
1:20 AM,32.0,32.0,100,29.83,7.0,SSW,4.6,-,N/A,Snow,Light Snow,200,2013-02-22 07:20:00
1:28 AM,32.0,32.0,100,29.83,10.0,SSW,4.6,-,N/A,,Overcast,200,2013-02-22 07:28:00
1:29 AM,32.0,32.0,100,29.83,10.0,Variable,4.6,-,N/A,,Overcast,0,2013-02-22 07:29:00
1:35 AM,32.0,32.0,100,29.83,10.0,SSW,4.6,-,N/A,,Overcast,200,2013-02-22 07:35:00
1:44 AM,32.0,32.0,100,29.83,10.0,SSW,3.5,-,N/A,,Overcast,200,2013-02-22 07:44:00
1:51 AM,32.0,32.0,100,29.83,10.0,Variable,3.5,-,N/A,,Overcast,0,2013-02-22 07:51:00
1:55 AM,32.5,32.5,100,29.83,9.0,SW,3.5,-,0.00,,Overcast,230,2013-02-22 07:55:00
1:56 AM,32.0,32.0,100,29.83,8.0,Variable,3.5,-,N/A,,Overcast,0,2013-02-22 07:56:00
2:06 AM,32.0,32.0,100,29.83,6.0,WSW,3.5,-,N/A,Snow,Light Snow,240,2013-02-22 08:06:00
2:19 AM,32.0,32.0,100,29.83,10.0,Variable,3.5,-,N/A,,Overcast,0,2013-02-22 08:19:00
2:23 AM,32.0,32.0,100,29.83,10.0,SW,3.5,-,N/A,,Overcast,220,2013-02-22 08:23:00
2:27 AM,32.0,32.0,100,29.83,10.0,SW,4.6,-,N/A,,Overcast,230,2013-02-22 08:27:00
2:30 AM,32.0,32.0,100,29.83,10.0,Variable,4.6,-,N/A,,Overcast,0,2013-02-22 08:30:00
2:31 AM,32.0,32.0,100,29.83,10.0,WSW,5.8,-,N/A,,Overcast,240,2013-02-22 08:31:00
2:32 AM,32.0,32.0,100,29.83,10.0,WSW,4.6,-,N/A,,Overcast,240,2013-02-22 08:32:00
2:35 AM,32.0,32.0,100,29.83,10.0,WSW,3.5,-,N/A,,Overcast,240,2013-02-22 08:35:00
2:55 AM,32.7,32.7,100,29.83,10.0,Variable,4.6,-,0.00,,Overcast,0,2013-02-22 08:55:00
3:10 AM,32.0,32.0,100,29.83,10.0,West,4.6,-,N/A,,Overcast,270,2013-02-22 09:10:00
3:55 AM,32.9,32.7,99,29.82,10.0,West,5.8,-,N/A,,Overcast,270,2013-02-22 09:55:00
4:55 AM,32.4,32.2,99,29.83,10.0,West,6.9,-,N/A,,Overcast,260,2013-02-22 10:55:00
5:07 AM,32.0,30.2,93,29.84,10.0,West,8.1,-,N/A,,Overcast,260,2013-02-22 11:07:00
5:10 AM,32.0,30.2,93,29.85,10.0,West,10.4,-,N/A,,Overcast,260,2013-02-22 11:10:00
5:25 AM,30.2,26.6,86,29.86,10.0,West,6.9,-,N/A,,Overcast,260,2013-02-22 11:25:00
5:28 AM,30.2,26.6,86,29.86,10.0,West,6.9,-,N/A,,Overcast,270,2013-02-22 11:28:00
5:29 AM,30.2,26.6,86,29.86,10.0,West,6.9,-,N/A,,Overcast,270,2013-02-22 11:29:00
5:55 AM,28.6,25.9,90,29.88,10.0,WSW,8.1,-,N/A,,Overcast,240,2013-02-22 11:55:00
6:22 AM,26.6,24.8,93,29.91,10.0,SW,8.1,-,N/A,,Overcast,220,2013-02-22 12:22:00
6:39 AM,26.6,24.8,93,29.92,10.0,SW,4.6,-,N/A,,Overcast,220,2013-02-22 12:39:00
6:41 AM,26.6,24.8,93,29.92,10.0,SW,5.8,-,N/A,,Overcast,230,2013-02-22 12:41:00
6:55 AM,26.2,23.5,90,29.93,10.0,WSW,8.1,-,N/A,,Overcast,240,2013-02-22 12:55:00
6:58 AM,26.6,23.0,86,29.93,10.0,WSW,5.8,-,N/A,,Overcast,240,2013-02-22 12:58:00
7:03 AM,26.6,23.0,86,29.93,10.0,SW,8.1,-,N/A,,Overcast,230,2013-02-22 13:03:00
7:55 AM,25.5,23.7,93,29.97,10.0,WSW,6.9,-,N/A,,Overcast,250,2013-02-22 13:55:00
8:31 AM,24.8,23.0,93,29.99,10.0,Variable,5.8,-,N/A,,Overcast,0,2013-02-22 14:31:00
8:39 AM,24.8,23.0,93,29.99,10.0,WSW,8.1,-,N/A,,Overcast,250,2013-02-22 14:39:00
8:48 AM,24.8,23.0,93,29.99,10.0,WSW,5.8,-,N/A,,Overcast,250,2013-02-22 14:48:00
8:55 AM,25.3,23.5,93,29.99,10.0,Variable,5.8,-,N/A,,Overcast,0,2013-02-22 14:55:00
8:57 AM,24.8,23.0,93,29.99,10.0,WSW,8.1,-,N/A,,Overcast,250,2013-02-22 14:57:00
9:37 AM,24.8,23.0,93,30.01,10.0,WSW,9.2,-,N/A,,Overcast,250,2013-02-22 15:37:00
9:55 AM,24.8,22.8,92,30.00,10.0,WSW,6.9,-,N/A,,Overcast,250,2013-02-22 15:55:00
10:06 AM,24.8,23.0,93,30.01,10.0,WSW,8.1,-,N/A,,Overcast,250,2013-02-22 16:06:00
10:55 AM,25.7,22.8,89,30.03,10.0,SW,8.1,-,N/A,,Overcast,230,2013-02-22 16:55:00
11:33 AM,26.6,23.0,86,30.04,10.0,SW,6.9,-,N/A,,Overcast,230,2013-02-22 17:33:00
11:34 AM,26.6,23.0,86,30.04,10.0,SW,8.1,-,N/A,,Overcast,230,2013-02-22 17:34:00
11:43 AM,26.6,23.0,86,30.04,10.0,WSW,9.2,-,N/A,,Overcast,240,2013-02-22 17:43:00
11:55 AM,27.0,22.3,83,30.05,10.0,WSW,8.1,-,N/A,,Overcast,250,2013-02-22 17:55:00
12:44 PM,28.4,23.0,80,30.04,10.0,West,10.4,-,N/A,,Overcast,260,2013-02-22 18:44:00
12:55 PM,28.2,22.3,78,30.04,10.0,WSW,8.1,-,N/A,,Overcast,250,2013-02-22 18:55:00
1:55 PM,28.2,21.9,77,30.03,10.0,SW,10.4,-,N/A,,Overcast,220,2013-02-22 19:55:00
2:55 PM,29.3,21.6,73,30.04,10.0,West,10.4,17.3,N/A,,Overcast,260,2013-02-22 20:55:00
3:55 PM,28.6,21.4,74,30.05,10.0,West,10.4,17.3,N/A,,Overcast,260,2013-02-22 21:55:00
4:45 PM,28.4,21.2,74,30.04,10.0,West,11.5,-,N/A,,Scattered Clouds,260,2013-02-22 22:45:00
4:55 PM,28.6,21.7,76,30.04,10.0,West,8.1,-,N/A,,Partly Cloudy,260,2013-02-22 22:55:00
5:55 PM,27.7,22.1,80,30.06,10.0,West,5.8,-,N/A,,Clear,270,2013-02-22 23:55:00
6:55 PM,25.9,21.9,85,30.06,10.0,Calm,Calm,-,N/A,,Clear,0,2013-02-23 00:55:00
7:55 PM,24.1,21.7,91,30.07,10.0,WSW,3.5,-,N/A,,Clear,240,2013-02-23 01:55:00
8:55 PM,23.7,21.6,91,30.09,10.0,SW,3.5,-,N/A,,Clear,220,2013-02-23 02:55:00
9:55 PM,22.5,21.0,94,30.10,10.0,Calm,Calm,-,N/A,,Clear,0,2013-02-23 03:55:00
10:55 PM,20.8,20.1,97,30.09,10.0,Calm,Calm,-,N/A,,Clear,0,2013-02-23 04:55:00
11:55 PM,21.4,20.3,96,30.09,10.0,WSW,4.6,-,N/A,,Clear,250,2013-02-23 05:55:00